H1 CPF 2 NER 2022 4 21 9 111 01 glonass134 H2 1407501 9134 40315 2022 4 21 0 0 0 2022 4 24 23 45 0 900 1 1 0 0 0 1 H9 10 0 59690 0.00000 0 -21840669.294 -12557512.780 3754629.606 10 0 59690 900.00000 0 -22114081.865 -12622126.012 576668.821 10 0 59690 1800.00000 0 -22045459.189 -12480926.780 -2612541.632 10 0 59690 2700.00000 0 -21611906.341 -12182486.341 -5750752.104 10 0 59690 3600.00000 0 -20802825.988 -11780000.831 -8776697.724 10 0 59690 4500.00000 0 -19620524.776 -11328822.983 -11631314.101 10 0 59690 5400.00000 0 -18080287.608 -10883914.226 -14258908.265 10 0 59690 6300.00000 0 -16209915.982 -10497327.467 -16608260.132 10 0 59690 7200.00000 0 -14048749.834 -10215829.347 -18633631.430 10 0 59690 8100.00000 0 -11646214.587 -10078764.337 -20295661.524 10 0 59690 9000.00000 0 -9059955.277 -10116252.147 -21562132.336 10 0 59690 9900.00000 0 -6353637.160 -10347795.078 -22408587.709 10 0 59690 10800.00000 0 -3594505.815 -10781353.889 -22818795.962 10 0 59690 11700.00000 0 -850809.367 -11412930.376 -22785047.919 10 0 59690 12600.00000 0 1810809.256 -12226673.002 -22308286.110 10 0 59690 13500.00000 0 4327841.799 -13195499.659 -21398064.348 10 0 59690 14400.00000 0 6644261.570 -14282209.826 -20072340.158 10 0 59690 15300.00000 0 8712591.660 -15441037.969 -18357105.641 10 0 59690 16200.00000 0 10495610.700 -16619581.768 -16285865.335 10 0 59690 17100.00000 0 11967627.827 -17761023.490 -13898972.226 10 0 59690 18000.00000 0 13115276.646 -18806550.911 -11242835.633 10 0 59690 18900.00000 0 13937798.112 -19697876.329 -8369016.730 10 0 59690 19800.00000 0 14446803.450 -20379748.501 -5333229.336 10 0 59690 20700.00000 0 14665529.542 -20802352.946 -2194265.249 10 0 59690 21600.00000 0 14627620.067 -20923500.961 987135.562 10 0 59690 22500.00000 0 14375484.982 -20710516.641 4149448.745 10 0 59690 23400.00000 0 13958308.000 -20141743.731 7231541.664 10 0 59690 24300.00000 0 13429785.921 -19207609.915 10173840.171 10 0 59690 25200.00000 0 12845694.474 -17911204.227 12919464.787 10 0 59690 26100.00000 0 12261382.117 -16268343.235 15415315.542 10 0 59690 27000.00000 0 11729296.121 -14307122.413 17613085.902 10 0 59690 27900.00000 0 11296643.768 -12066969.985 19470187.453 10 0 59690 28800.00000 0 11003286.016 -9597240.811 20950568.463 10 0 59690 29700.00000 0 10879951.485 -6955406.474 22025411.343 10 0 59690 30600.00000 0 10946845.725 -4204914.189 22673695.914 10 0 59690 31500.00000 0 11212714.652 -1412800.926 22882617.499 10 0 59690 32400.00000 0 11674402.666 1352840.731 22647851.224 10 0 59690 33300.00000 0 12316925.697 4025441.955 21973656.332 10 0 59690 34200.00000 0 13114058.301 6542476.724 20872816.979 10 0 59690 35100.00000 0 14029412.504 8847816.938 19366418.812 10 0 59690 36000.00000 0 15017965.391 10893826.041 17483463.567 10 0 59690 36900.00000 0 16027973.247 12643103.632 15260327.108 10 0 59690 37800.00000 0 17003193.153 14069807.592 12740069.507 10 0 59690 38700.00000 0 17885319.234 15160497.480 9971608.982 10 0 59690 39600.00000 0 18616530.731 15914462.716 7008774.788 10 0 59690 40500.00000 0 19142043.473 16343520.923 3909257.074 10 0 59690 41400.00000 0 19412555.331 16471294.372 733474.415 10 0 59690 42300.00000 0 19386480.105 16331995.043 -2456617.858 10 0 59690 43200.00000 0 19031872.946 15968770.255 -5598753.850 10 0 59690 44100.00000 0 18327963.341 15431680.067 -8631591.949 10 0 59690 45000.00000 0 17266228.643 14775393.827 -11495932.039 10 0 59690 45900.00000 0 15850960.952 14056705.532 -14135889.229 10 0 59690 46800.00000 0 14099302.202 13331975.502 -16499999.304 10 0 59690 47700.00000 0 12040745.426 12654608.816 -18542232.735 10 0 59690 48600.00000 0 9716123.255 12072679.024 -20222896.555 10 0 59690 49500.00000 0 7176126.619 11626798.893 -21509406.150 10 0 59690 50400.00000 0 4479416.710 11348328.711 -22376912.094 10 0 59690 51300.00000 0 1690410.136 11257997.697 -22808770.663 10 0 59690 52200.00000 0 -1123169.401 11364995.847 -22796850.060 10 0 59690 53100.00000 0 -3892870.207 11666573.154 -22341667.944 10 0 59690 54000.00000 0 -6552115.055 12148161.369 -21452359.273 10 0 59690 54900.00000 0 -9038719.299 12784011.284 -20146476.779 10 0 59690 55800.00000 0 -11297221.014 13538316.867 -18449629.571 10 0 59690 56700.00000 0 -13280928.093 14366777.339 -16394968.225 10 0 59690 57600.00000 0 -14953599.439 15218530.242 -14022527.461 10 0 59690 58500.00000 0 -16290692.865 16038373.395 -11378439.958 10 0 59690 59400.00000 0 -17280130.563 16769182.009 -8514037.004 10 0 59690 60300.00000 0 -17922553.084 17354419.494 -5484853.506 10 0 59690 61200.00000 0 -18231053.728 17740636.949 -2349556.558 10 0 59690 62100.00000 0 -18230406.795 17879857.130 831182.150 10 0 59690 63000.00000 0 -17955823.663 17731743.694 3995848.995 10 0 59690 63900.00000 0 -17451289.928 17265465.563 7083264.430 10 0 59690 64800.00000 0 -16767553.840 16461178.926 10033750.773 10 0 59690 65700.00000 0 -15959850.275 15311065.113 12790270.404 10 0 59690 66600.00000 0 -15085455.115 13819880.797 15299513.640 10 0 59690 67500.00000 0 -14201171.682 12004996.846 17512916.613 10 0 59690 68400.00000 0 -13360853.468 9895922.898 19387590.753 10 0 59690 69300.00000 0 -12613065.939 7533335.656 20887146.934 10 0 59690 70200.00000 0 -11998984.484 4967649.075 21982399.192 10 0 59690 71100.00000 0 -11550616.080 2257183.122 22651934.832 10 0 59690 72000.00000 0 -11289419.173 -533995.469 22882539.818 10 0 59690 72900.00000 0 -11225380.167 -3338473.616 22669470.742 10 0 59690 73800.00000 0 -11356586.338 -6088036.338 22016567.020 10 0 59690 74700.00000 0 -11669314.698 -8716251.492 20936199.684 10 0 59690 75600.00000 0 -12138634.991 -11160988.901 19449055.920 10 0 59690 76500.00000 0 -12729503.532 -13366769.832 17583761.438 10 0 59690 77400.00000 0 -13398303.763 -15286848.978 15376345.976 10 0 59690 78300.00000 0 -14094770.231 -16884941.590 12869560.347 10 0 59690 79200.00000 0 -14764215.798 -18136522.624 10112056.724 10 0 59690 80100.00000 0 -15349968.310 -19029642.235 7157447.071 10 0 59690 81000.00000 0 -15795913.199 -19565222.274 4063257.629 10 0 59690 81900.00000 0 -16049033.152 -19756820.398 889799.990 10 0 59690 82800.00000 0 -16061835.410 -19629871.248 -2301018.201 10 0 59690 83700.00000 0 -15794561.537 -19220436.874 -5446918.291 10 0 59690 84600.00000 0 -15217083.517 -18573519.991 -8486485.633 10 0 59690 85500.00000 0 -14310403.470 -17741012.717 -11360388.229 10 0 59691 0.00000 0 -13067691.483 -16779369.573 -14012552.924 10 0 59691 900.00000 0 -11494815.326 -15747104.690 -16391275.664 10 0 59691 1800.00000 0 -9610340.427 -14702222.601 -18450239.024 10 0 59691 2700.00000 0 -7444997.416 -13699691.331 -20149420.984 10 0 59691 3600.00000 0 -5040641.394 -12789067.259 -21455873.192 10 0 59691 4500.00000 0 -2448746.547 -12012372.307 -22344355.195 10 0 59691 5400.00000 0 271499.944 -11402313.076 -22797812.823 10 0 59691 6300.00000 0 3055424.253 -10980916.344 -22807692.619 10 0 59691 7200.00000 0 5835318.895 -10758636.997 -22374087.697 10 0 59691 8100.00000 0 8543019.845 -10733974.114 -21505713.901 10 0 59691 9000.00000 0 11112500.800 -10893609.167 -20219718.393 10 0 59691 9900.00000 0 13482377.265 -11213058.269 -18541326.012 10 0 59691 10800.00000 0 15598217.750 -11657808.899 -16503331.665 10 0 59691 11700.00000 0 17414567.782 -12184891.415 -14145449.663 10 0 59691 12600.00000 0 18896604.711 -12744817.877 -11513533.506 10 0 59691 13500.00000 0 20021356.968 -13283805.697 -8658681.683 10 0 59691 14400.00000 0 20778439.602 -13746192.188 -5636246.955 10 0 59691 15300.00000 0 21170277.877 -14076938.545 -2504768.242 10 0 59691 16200.00000 0 21211811.922 -14224118.443 675154.662 10 0 59691 17100.00000 0 20929696.579 -14141287.291 3842022.480 10 0 59691 18000.00000 0 20361031.264 -13789633.457 6934612.277 10 0 59691 18900.00000 0 19551673.692 -13139821.807 9893146.121 10 0 59691 19800.00000 0 18554208.218 -12173452.660 12660431.234 10 0 59691 20700.00000 0 17425653.402 -10884075.104 15182950.806 10 0 59691 21600.00000 0 16225003.964 -9277711.744 17411885.790 10 0 59691 22500.00000 0 15010708.815 -7372871.846 19304049.191 10 0 59691 23400.00000 0 13838189.504 -5200050.668 20822715.794 10 0 59691 24300.00000 0 12757501.682 -2800733.613 21938332.155 10 0 59691 25200.00000 0 11811236.495 -225943.942 22629093.569 10 0 59691 26100.00000 0 11032749.169 2465608.402 22881376.800 10 0 59691 27000.00000 0 10444788.900 5209702.917 22690019.713 10 0 59691 27900.00000 0 10058587.890 7939022.028 22058441.405 10 0 59691 28800.00000 0 9873448.737 10585703.974 20998599.002 10 0 59691 29700.00000 0 9876848.907 13083930.818 19530780.176 10 0 59691 30600.00000 0 10045059.528 15372445.112 17683233.335 10 0 59691 31500.00000 0 10344254.207 17396890.624 15491640.576 10 0 59691 32400.00000 0 10732062.625 19111879.276 12998441.739 10 0 59691 33300.00000 0 11159504.449 20482697.012 10252021.020 10 0 59691 34200.00000 0 11573222.329 21486575.853 7305770.980 10 0 59691 35100.00000 0 11917919.291 22113477.428 4217051.634 10 0 59691 36000.00000 0 12138896.315 22366353.783 1046065.132 10 0 59691 36900.00000 0 12184580.927 22260873.513 -2145331.130 10 0 59691 37800.00000 0 12008937.406 21824624.438 -5294848.346 10 0 59691 38700.00000 0 11573653.934 21095826.703 -8341001.392 10 0 59691 39600.00000 0 10850011.420 20121611.570 -11224328.846 10 0 59691 40500.00000 0 9820352.489 18955940.122 -13888572.041 10 0 59691 41400.00000 0 8479086.448 17657251.650 -16281788.227 10 0 59691 42300.00000 0 6833186.367 16285943.136 -18357374.487 10 0 59691 43200.00000 0 4902156.464 14901788.157 -20074981.444 10 0 59691 44100.00000 0 2717470.851 13561405.658 -21401298.522 10 0 59691 45000.00000 0 321507.564 12315886.352 -22310695.553 10 0 59691 45900.00000 0 -2233976.879 11208676.983 -22785709.036 10 0 59691 46800.00000 0 -4889767.812 10273811.015 -22817364.715 10 0 59691 47700.00000 0 -7581426.653 9534558.955 -22405331.730 10 0 59691 48600.00000 0 -10241745.368 9002553.171 -21557907.025 10 0 59691 49500.00000 0 -12803318.830 8677421.651 -20291832.018 10 0 59691 50400.00000 0 -15201128.268 8546943.551 -18631946.721 10 0 59691 51300.00000 0 -17375029.240 8587717.396 -16610689.422 10 0 59691 52200.00000 0 -19272042.039 8766311.458 -14267452.759 10 0 59691 53100.00000 0 -20848350.953 9040845.943 -11647809.518 10 0 59691 54000.00000 0 -22070931.364 9362938.923 -8802623.667 10 0 59691 54900.00000 0 -22918739.201 9679933.172 -5787063.953 10 0 59691 55800.00000 0 -23383415.442 9937309.811 -2659539.149 10 0 59691 56700.00000 0 -23469478.485 10081187.261 519424.920 10 0 59691 57600.00000 0 -23193998.153 10060800.812 3688345.498 10 0 59691 58500.00000 0 -22585766.365 9830859.169 6785958.548 10 0 59691 59400.00000 0 -21683999.999 9353679.657 9752388.288 10 0 59691 60300.00000 0 -20536630.438 8601012.902 12530289.270 10 0 59691 61200.00000 0 -19198251.034 7555480.732 15065940.118 10 0 59691 62100.00000 0 -17727807.546 6211566.761 17310269.187 10 0 59691 63000.00000 0 -16186126.857 4576117.388 19219793.575 10 0 59691 63900.00000 0 -14633385.939 2668330.877 20757454.369 10 0 59691 64800.00000 0 -13126625.309 519232.937 21893332.849 10 0 59691 65700.00000 0 -11717409.565 -1829341.935 22605234.261 10 0 59691 66600.00000 0 -10449731.747 -4326223.756 22879127.825 10 0 59691 67500.00000 0 -9358248.507 -6912776.807 22709434.030 10 0 59691 68400.00000 0 -8466919.808 -9525091.096 22099152.651 10 0 59691 69300.00000 0 -7788110.540 -12096407.045 21059827.546 10 0 59691 70200.00000 0 -7322192.581 -14559674.715 19611347.143 10 0 59691 71100.00000 0 -7057665.234 -16850142.607 17781582.410 10 0 59691 72000.00000 0 -6971790.386 -18907868.784 15605867.286 10 0 59691 72900.00000 0 -7031716.975 -20680049.534 13126329.710 10 0 59691 73800.00000 0 -7196048.416 -22123067.544 10391084.604 10 0 59691 74700.00000 0 -7416787.387 -23204172.496 7453303.454 10 0 59691 75600.00000 0 -7641575.653 -23902722.095 4370178.068 10 0 59691 76500.00000 0 -7816133.397 -24210929.787 1201798.846 10 0 59691 77400.00000 0 -7886793.192 -24134086.317 -1990029.643 10 0 59691 78300.00000 0 -7803019.198 -23690244.884 -5143011.298 10 0 59691 79200.00000 0 -7519802.280 -22909382.861 -8195593.619 10 0 59691 80100.00000 0 -6999826.908 -21832075.813 -11088189.063 10 0 59691 81000.00000 0 -6215315.466 -20507740.797 -13764356.665 10 0 59691 81900.00000 0 -5149469.615 -18992524.588 -16171918.954 10 0 59691 82800.00000 0 -3797446.031 -17346927.805 -18263990.688 10 0 59691 83700.00000 0 -2166824.099 -15633266.968 -19999898.362 10 0 59691 84600.00000 0 -277545.257 -13913083.076 -21345972.082 10 0 59691 85500.00000 0 1838673.453 -12244607.031 -22276194.461 10 0 59692 0.00000 0 4139426.414 -10680389.196 -22772694.639 10 0 59692 900.00000 0 6573162.114 -9265191.613 -22826079.123 10 0 59692 1800.00000 0 9081112.993 -8034232.555 -22435593.962 10 0 59692 2700.00000 0 11599535.369 -7011852.498 -21609117.632 10 0 59692 3600.00000 0 14062162.564 -6210657.328 -20362985.753 10 0 59692 4500.00000 0 16402770.160 -5631171.168 -18721652.968 10 0 59692 5400.00000 0 18557746.800 -5262010.657 -16717199.932 10 0 59692 6300.00000 0 20468564.491 -5080570.541 -14388696.106 10 0 59692 7200.00000 0 22084046.817 -5054189.241 -11781431.565 10 0 59692 8100.00000 0 23362342.381 -5141743.336 -8946033.267 10 0 59692 9000.00000 0 24272523.245 -5295602.294 -5937483.009 10 0 59692 9900.00000 0 24795743.701 -5463860.337 -2814056.097 10 0 59692 10800.00000 0 24925913.098 -5592751.064 363799.197 10 0 59692 11700.00000 0 24669856.368 -5629143.348 3534620.376 10 0 59692 12600.00000 0 24046956.921 -5523013.933 6637106.031 10 0 59692 13500.00000 0 23088297.745 -5229793.340 9611286.143 10 0 59692 14400.00000 0 21835336.912 -4712487.126 12399665.962 10 0 59692 15300.00000 0 20338172.635 -3943483.803 14948322.585 10 0 59692 16200.00000 0 18653469.559 -2905973.656 17207934.421 10 0 59692 17100.00000 0 16842131.674 -1594918.476 19134724.901 10 0 59692 18000.00000 0 14966817.513 -17530.617 20691303.231 10 0 59692 18900.00000 0 13089399.637 1806760.374 21847386.807 10 0 59692 19800.00000 0 11268472.778 3846854.464 22580391.788 10 0 59692 20700.00000 0 9557013.228 6061021.074 22875880.395 10 0 59692 21600.00000 0 8000286.052 8398391.967 22727855.861 10 0 59692 22500.00000 0 6634086.911 10800848.058 22138898.335 10 0 59692 23400.00000 0 5483391.920 13205224.384 21120137.697 10 0 59692 24300.00000 0 4561472.399 15545743.964 19691062.032 10 0 59692 25200.00000 0 3869512.423 17756581.003 17879163.422 10 0 59692 26100.00000 0 3396746.327 19774447.576 15719425.878 10 0 59692 27000.00000 0 3121111.494 21541096.087 13253663.408 10 0 59692 27900.00000 0 3010389.953 23005632.383 10529719.390 10 0 59692 28800.00000 0 3023791.254 24126541.407 7600541.771 10 0 59692 29700.00000 0 3113909.871 24873338.838 4523151.517 10 0 59692 30600.00000 0 3228973.721 25227777.499 1357524.532 10 0 59692 31500.00000 0 3315287.417 25184555.975 -1834590.255 10 0 59692 32400.00000 0 3319764.806 24751498.243 -4990892.240 10 0 59692 33300.00000 0 3192441.098 23949195.780 -8049764.261 10 0 59692 34200.00000 0 2888855.522 22810127.068 -10951495.210 10 0 59692 35100.00000 0 2372200.837 21377292.051 -13639464.175 10 0 59692 36000.00000 0 1615146.250 19702420.192 -16061261.064 10 0 59692 36900.00000 0 601254.608 17843829.186 -18169720.166 10 0 59692 37800.00000 0 -674067.542 15864026.229 -19923845.455 10 0 59692 38700.00000 0 -2203127.959 13827154.412 -21289609.091 10 0 59692 39600.00000 0 -3966033.665 11796393.017 -22240607.604 10 0 59692 40500.00000 0 -5931299.056 9831421.654 -22758563.715 10 0 59692 41400.00000 0 -8056951.065 7986054.723 -22833665.143 10 0 59692 42300.00000 0 -10292084.238 6306144.772 -22464735.273 10 0 59692 43200.00000 0 -12578799.883 4827841.072 -21659234.071 10 0 59692 44100.00000 0 -14854447.669 3576274.209 -20433090.922 10 0 59692 45000.00000 0 -17054075.714 2564719.157 -18810374.280 10 0 59692 45900.00000 0 -19112987.074 1794268.851 -16822805.991 10 0 59692 46800.00000 0 -20969296.567 1254028.873 -14509130.836 10 0 59692 47700.00000 0 -22566382.248 921822.142 -11914354.447 10 0 59692 48600.00000 0 -23855130.682 765371.437 -9088864.846 10 0 59692 49500.00000 0 -24795884.012 743907.940 -6087454.836 10 0 59692 50400.00000 0 -25360009.300 810136.723 -2968264.105 10 0 59692 51300.00000 0 -25531026.453 912475.575 208338.866 10 0 59692 52200.00000 0 -25305249.241 997472.676 3380914.153 10 0 59692 53100.00000 0 -24691913.939 1012301.556 6488125.390 10 0 59692 54000.00000 0 -23712791.124 907228.848 9469910.801 10 0 59692 54900.00000 0 -22401297.198 637951.681 12268628.869 10 0 59692 55800.00000 0 -20801142.566 167707.094 14830157.696 10 0 59692 56700.00000 0 -18964572.170 -530934.805 17104928.208 10 0 59692 57600.00000 0 -16950270.536 -1474669.217 19048872.483 10 0 59692 58500.00000 0 -14821017.136 -2668505.951 20624269.937 10 0 59692 59400.00000 0 -12641187.965 -4105310.657 21800475.871 10 0 59692 60300.00000 0 -10474205.511 -5765859.119 22554518.816 10 0 59692 61200.00000 0 -8380041.667 -7619404.693 22871555.088 10 0 59692 62100.00000 0 -6412876.135 -9624738.091 22745171.393 10 0 59692 63000.00000 0 -4619006.846 -11731698.359 22177528.641 10 0 59692 63900.00000 0 -3035099.101 -13883074.985 21179342.784 10 0 59692 64800.00000 0 -1686846.467 -16016824.532 19769701.304 10 0 59692 65700.00000 0 -588099.852 -18068511.513 17975716.834 10 0 59692 66600.00000 0 259497.889 -19973872.968 15832022.609 10 0 59692 67500.00000 0 866355.621 -21671400.225 13380117.560 10 0 59692 68400.00000 0 1254261.448 -23104829.572 10667572.107 10 0 59692 69300.00000 0 1455221.747 -24225436.450 7747108.982 10 0 59692 70200.00000 0 1509860.434 -24994035.302 4675576.407 10 0 59692 71100.00000 0 1465446.490 -25382599.081 1512833.686 10 0 59692 72000.00000 0 1373634.130 -25375428.207 -1679428.188 10 0 59692 72900.00000 0 1288012.982 -24969817.860 -4838906.570 10 0 59692 73800.00000 0 1261574.265 -24176194.047 -7903922.262 10 0 59692 74700.00000 0 1344202.839 -23017711.852 -10814643.348 10 0 59692 75600.00000 0 1580304.095 -21529332.667 -13514271.820 10 0 59692 76500.00000 0 2006668.751 -19756419.784 -15950167.865 10 0 59692 77400.00000 0 2650668.107 -17752912.624 -18074888.155 10 0 59692 78300.00000 0 3528857.809 -15579157.855 -19847116.859 10 0 59692 79200.00000 0 4646050.147 -13299490.128 -21232470.667 10 0 59692 80100.00000 0 5994894.492 -10979665.455 -22204162.187 10 0 59692 81000.00000 0 7555983.413 -8684255.892 -22743509.481 10 0 59692 81900.00000 0 9298479.508 -6474115.021 -22840282.931 10 0 59692 82800.00000 0 11181235.762 -4404020.102 -22492884.145 10 0 59692 83700.00000 0 13154361.512 -2520588.358 -21708355.111 10 0 59692 84600.00000 0 15161167.687 -860552.658 -20502219.106 10 0 59692 85500.00000 0 17140409.202 550533.721 -18898158.122 10 0 59693 0.00000 0 19028730.403 1699111.958 -16927534.691 10 0 59693 900.00000 0 20763212.522 2583921.857 -14628767.439 10 0 59693 1800.00000 0 22283914.751 3215784.204 -12046576.121 10 0 59693 2700.00000 0 23536307.173 3616875.512 -9231107.777 10 0 59693 3600.00000 0 24473492.660 3819526.504 -6236963.705 10 0 59693 4500.00000 0 25058127.405 3864597.470 -3122145.081 10 0 59693 5400.00000 0 25263961.267 3799500.035 53062.616 10 0 59693 6300.00000 0 25076934.984 3675949.278 3227245.458 10 0 59693 7200.00000 0 24495789.666 3547540.915 6339035.622 10 0 59693 8100.00000 0 23532163.940 3467255.187 9328283.046 10 0 59693 9000.00000 0 22210175.041 3484991.860 12137202.780 10 0 59693 9900.00000 0 20565501.208 3645239.278 14711477.040 10 0 59693 10800.00000 0 18644002.944 3984974.799 17001292.090 10 0 59693 11700.00000 0 16499939.340 4531884.510 18962291.151 10 0 59693 12600.00000 0 14193852.205 5302976.983 20556425.973 10 0 59693 13500.00000 0 11790204.105 6303649.958 21752691.516 10 0 59693 14400.00000 0 9354866.503 7527250.363 22527730.008 10 0 59693 15300.00000 0 6952560.553 8955148.033 22866292.755 10 0 59693 16200.00000 0 4644355.159 10557322.529 22761550.356 10 0 59693 17100.00000 0 2485324.977 12293441.383 22215244.409 10 0 59693 18000.00000 0 522465.013 14114387.594 21237676.373 10 0 59693 18900.00000 0 -1207051.721 15964175.401 19847532.065 10 0 59693 19800.00000 0 -2677200.679 17782176.666 18071543.160 10 0 59693 20700.00000 0 -3873960.325 19505566.491 15943990.205 10 0 59693 21600.00000 0 -4795658.221 21071886.742 13506054.821 10 0 59693 22500.00000 0 -5452793.216 22421620.177 10805031.976 10 0 59693 23400.00000 0 -5867340.444 23500666.458 7893416.517 10 0 59693 24300.00000 0 -6071568.013 24262614.602 4827881.115 10 0 59693 25200.00000 0 -6106415.410 24670714.355 1668165.593 10 0 59693 26100.00000 0 -6019502.852 24699461.216 -1524099.886 10 0 59693 27000.00000 0 -5862857.170 24335726.146 -4686613.499 10 0 59693 27900.00000 0 -5690452.467 23579380.388 -7757636.756 10 0 59693 28800.00000 0 -5555672.073 22443387.637 -10677219.528 10 0 59693 29700.00000 0 -5508801.946 20953358.911 -13388389.090 10 0 59693 30600.00000 0 -5594664.255 19146588.775 -15838278.022 10 0 59693 31500.00000 0 -5850493.622 17070614.113 -17979167.227 10 0 59693 32400.00000 0 -6304147.757 14781357.074 -19769422.636 10 0 59693 33300.00000 0 -6972729.345 12340931.554 -21174306.772 10 0 59693 34200.00000 0 -7861677.988 9815206.620 -22166649.356 10 0 59693 35100.00000 0 -8964370.466 7271230.097 -22727364.561 10 0 59693 36000.00000 0 -10262245.622 4774620.760 -22845805.915 10 0 59693 36900.00000 0 -11725447.699 2387038.250 -22519953.421 10 0 59693 37800.00000 0 -13313959.976 163835.674 -21756430.902 10 0 59693 38700.00000 0 -14979180.094 -1848008.621 -20570354.986 10 0 59693 39600.00000 0 -16665869.980 -3611595.802 -18985020.276 10 0 59693 40500.00000 0 -18314398.108 -5101379.446 -17031428.333 10 0 59693 41400.00000 0 -19863179.952 -6303956.475 -14747670.745 10 0 59693 42300.00000 0 -21251214.601 -7218346.231 -12178179.225 10 0 59693 43200.00000 0 -22420612.032 -7855749.243 -9372857.779 10 0 59693 44100.00000 0 -23319006.198 -8238798.614 -6386114.005 10 0 59693 45000.00000 0 -23901754.182 -8400337.821 -3275808.251 10 0 59693 45900.00000 0 -24133830.703 -8381778.068 -102140.579 10 0 59693 46800.00000 0 -23991340.051 -8231105.350 3073503.582 10 0 59693 47700.00000 0 -23462583.316 -8000621.546 6189727.537 10 0 59693 48600.00000 0 -22548637.117 -7744514.482 9186295.581 10 0 59693 49500.00000 0 -21263420.006 -7516358.710 12005281.981 10 0 59693 50400.00000 0 -19633243.654 -7366651.309 14592175.677 10 0 59693 51300.00000 0 -17695866.834 -7340485.511 16896920.752 10 0 59693 52200.00000 0 -15499090.398 -7475459.226 18874873.829 10 0 59693 53100.00000 0 -13098950.073 -7799905.884 20487660.964 10 0 59693 54000.00000 0 -10557580.217 -8331522.015 21703918.363 10 0 59693 54900.00000 0 -7940835.056 -9076449.828 22499903.143 10 0 59693 55800.00000 0 -5315764.075 -10028854.592 22859962.358 10 0 59693 56700.00000 0 -2748044.294 -11171016.481 22776850.848 10 0 59693 57600.00000 0 -299474.339 -12473935.468 22251890.866 10 0 59693 58500.00000 0 1974366.721 -13898426.643 21294968.994 10 0 59693 59400.00000 0 4026199.173 -15396662.822 19924368.702 10 0 59693 60300.00000 0 5818774.640 -16914102.405 18166439.739 10 0 59693 61200.00000 0 7326187.581 -18391723.672 16055108.737 10 0 59693 62100.00000 0 8534710.865 -19768473.205 13631238.524 10 0 59693 63000.00000 0 9443119.527 -20983826.177 10941846.883 10 0 59693 63900.00000 0 10062488.227 -21980350.541 8039198.797 10 0 59693 64800.00000 0 10415470.325 -22706166.128 4979789.207 10 0 59693 65700.00000 0 10535088.787 -23117193.268 1823236.107 10 0 59693 66600.00000 0 10463090.287 -23179093.906 -1368893.640 10 0 59693 67500.00000 0 10247933.122 -22868820.933 -4534301.579 10 0 59693 68400.00000 0 9942495.692 -22175708.071 -7611192.515 10 0 59693 69300.00000 0 9601604.657 -21102052.408 -10539500.681 10 0 59693 70200.00000 0 9279489.942 -19663163.666 -13262081.175 10 0 59693 71100.00000 0 9027276.851 -17886877.412 -15725841.439 10 0 59693 72000.00000 0 8890623.847 -15812552.745 -17882788.950 10 0 59693 72900.00000 0 8907607.898 -13489597.201 -19690973.563 10 0 59693 73800.00000 0 9106948.211 -10975581.770 -21115305.554 10 0 59693 74700.00000 0 9506644.109 -8334026.386 -22128233.372 10 0 59693 75600.00000 0 10113084.594 -5631949.683 -22710268.570 10 0 59693 76500.00000 0 10920666.615 -2937286.320 -22850348.731 10 0 59693 77400.00000 0 11911937.059 -316280.133 -22546032.786 10 0 59693 78300.00000 0 13058251.218 2169038.432 -21803526.587 10 0 59693 79200.00000 0 14320918.639 4463186.496 -20637539.954 10 0 59693 80100.00000 0 15652786.903 6519278.844 -19070979.623 10 0 59693 81000.00000 0 17000195.800 8300710.870 -17134485.562 10 0 59693 81900.00000 0 18305219.205 9782407.017 -14865820.814 10 0 59693 82800.00000 0 19508100.365 10951585.621 -12309127.688 10 0 59693 83700.00000 0 20549778.641 11808011.418 -9514065.272 10 0 59693 84600.00000 0 21374402.399 12363728.189 -6534845.203 10 0 59693 85500.00000 0 21931723.570 12642285.335 -3429184.405 99